Back to catalog

SL-12 DEB

LostUNKNOWN
NORAD 28004·DEBRIS·🇷🇺 Russia

Launched Sep 16, 1988 from Baikonur Cosmodrome

Loading…

Next Passes (next 24 hours)

TLE

StaleSource: Space-Track

Epoch: Jul 17, 2026, 07:09 UTC

1 28004U 88085BA  26198.29792932  .00064280  00000-0  20037+0 0  9993
2 28004  63.8633 302.9194 2221850 287.0282  76.7820  9.84088518 74127

Track SL-12 DEB in real time with AllMySat

Download on the App Store